Showing default

GLOBALSTAR M003, 25165

Orbit data source: Space-Track

GLOBALSTAR M003, 25165 is a payload satellite owned by Globalstar (US) in LEO that was launched on Sat, 14 Feb 1998 UTC via a DELTA 7420-10C launch vehicle from the Air Force Eastern Test Range (AFETR). Payloads include a variety of satellites, spacecraft, and rockets equipped with specific instruments for various scientific and technological missions. These include communications satellites like Starlink; space stations such as the ISS; scientific satellites like the Hubble; Earth observation satellites from companies like Planet Labs, Umbra, and HawkEye 360; GPS; miniature CubeSats for education and research; and military/defense satellites.

Loading next visibility...
GLOBALSTAR M003 details
Identifier
25165, 1998-008D
Orbit
LEO
Last TLE update7 hours ago
Origin
Flag of USGlobalstar (US / GLOB)
ManufacturerSS/Loral
MissionNon-operational Commercial Communications
Bus & MotorLS-400, Unknown motor
Mass450 kg wet, 380 kg dry
Launch date (UTC)
1998-02-14 (27 years ago)
Launch vehicle
DELTA 7420-10C
Launch site
Air Force Eastern Test Range (AFETR)
Object type
Payload
Rocket body
Debris
Shape & HBRBox + 2 Pan, 12 m
Radar Cross Section5.587 m², Large (>1 m²)

Expand to show TLE details & history

TLE from 7 hours ago
0 GLOBALSTAR M003
1 25165U 98008D   24361.54490613 -.00000010  00000-0  84832-3 0  9992
2 25165  51.9989 286.6605 0007873 308.9566 222.4274 12.12062104212284
Epoch: 2024-12-26T13:04Z
Definitive object data (Epoch: 2024-12-26T13:04:39.889Z)
Latitude6.79725°
Longitude169.65374°
Altitude1,632.001 km
Speed7.055 km/s
True Right ascension06h 45m 22s
True Declination6° 45' 41"
Sunlit
Object was in full shadow at TLE epoch
Visualization TLE readout
Latitude-47.00854°
Longitude-62.30985°
Altitude1,637.35 km
Speed7.056 km/s
Apparent Right ascension11h 34m 03s
Apparent Declination-63° 31' 51"
Sunlit
Object is in daylight
Visualization observer readout
Local Sidereal Time19:03:28
Azimuth215.505° SW
Elevation-44.784°
Doppler factor1
Orbital elements
Apogee altitude1,633.989 km
Perigee altitude1,621.383 km
Semi-major axis8,005.823 km
Eccentricity0.0007873
Inclination51.9989°
RAAN286.6605°
Arg. of periapsis308.9566°
True anomaly222.36658°
Mean anomaly222.4274°
Eccentric anomaly222.39698°
Mean motion3.02994 °/min
BSTAR0.00084832
Orbital period118.81 mins
Loading maneuver chart data...
Loading historical data...
Loading historical data...
Loading historical data...
Loading historical data...
Loading historical data...
Loading historical data...
Loading historical data...

GLOBALSTAR M003 Visibility forecast

Observer location: undefined°, undefined

Span
Click to sort rows by Start time (UTC) header in descending order
Start Az.
Max El. time (UTC)
Max El. Az.
Max El.
End time (UTC)
End Az.
14 mins2024-12-26 20:08:46.724Z171.967° S2024-12-26 20:15:46.724Z121.617° SE24.675°2024-12-26 20:22:46.724Z71.857° E
17 mins2024-12-26 22:11:46.724Z228.816° WSW2024-12-26 22:19:46.724Z102.313° ESE44.987°2024-12-26 22:28:46.724Z52.845° ENE
17 mins2024-12-27 00:17:46.724Z276.853° WNW2024-12-27 00:25:46.724Z347.062° N35.74°2024-12-27 00:34:46.724Z56.204° ENE
17 mins2024-12-27 02:24:46.724Z305.246° NW2024-12-27 02:32:46.724Z12.975° NNE34.747°2024-12-27 02:41:46.724Z82.022° E
17 mins2024-12-27 04:30:46.724Z308.687° NW2024-12-27 04:38:46.724Z26.708° NE44.753°2024-12-27 04:47:46.724Z124.841° SE
14 mins2024-12-27 06:36:46.724Z286.74° WNW2024-12-27 06:42:46.724Z239.212° WSW28.448°2024-12-27 06:50:46.724Z179.195° S
|